User: anonymous   Login
Location: Isola Pescaroli
(45.0500°N, 10.1667°E)
Time: 20:58:31
(UTC+00:00)
Language:

SME Rocket - Orbit

View from above orbital plane
View from above orbital plane
View from above satellite
View from above satellite

Ground track
Ground track

The orbit data is extracted from the following two-line orbital elements,

1 12889U 81100C   21134.57023819 -.00000001  00000-0  14957-4 0  9996
2 12889  99.8641 330.8317 1316768  55.3997   1.1391 12.18065570754772
Epoch (UTC): 14 May 2021 13:41:08
Eccentricity: 0.1316768
inclination: 99.8641°
perigee height: 550 km
apogee height: 2651 km
right ascension of ascending node: 330.8317°
argument of perigee: 55.3997°
revolutions per day: 12.18065570
mean anomaly at epoch: 1.1391°
orbit number at epoch: 75477

The dashed part of the orbit path shows where the satellite is in the earth's shadow,  

DLR